Weather History for Alexandria, LA

Change the Weather History Date:

Wednesday, January 5, 2011

  Actual Average Record
Temperature  
Mean Temperature 58 °F 49 °F  
Max Temperature 70 °F 59 °F 78 °F (1997)
Min Temperature 45 °F 39 °F 11 °F (1911)
Degree Days  
Heating Degree Days 7 16  
Month to date heating degree days 79 80  
Since 1 July heating degree days 886 869  
Growing Degree Days 8 (Base 50)    
Moisture  
Dew Point 53 °F    
Average Humidity 74    
Maximum Humidity 100    
Minimum Humidity 48    
Precipitation  
Precipitation 0.08 in 0.16 in 2.52 in (1962)
Month to date precipitation 0.12 0.74  
Year to date precipitation 0.12 0.74  
Snow  
Snow 0.00 in - - ()
Month to date snowfall 0.0  
Since 1 July snowfall 0.0  
Snow Depth 0.00 in    
Sea Level Pressure  
Sea Level Pressure 29.93 in    
Wind  
Wind Speed 6 mph (NW)    
Max Wind Speed 22 mph    
Max Gust Speed 25 mph    
Visibility 6 miles    
Events Rain    
T = Trace of Precipitation, MM = Missing Value Source: NWS Daily Summary

Daily Weather History Graph

Daily Weather History Graph

Search for Another Location

Airport:

Trip Planner

Search our weather history database for the weather conditions in past years. The results will help you decide how hot, cold, wet, or windy it might be!

Date:

Astronomy

Jan. 05, 2011 Rise Set
Actual Time 7:09 AM CST 5:21 PM CST
Civil Twilight 6:43 AM CST 5:48 PM CST
Nautical Twilight 6:13 AM CST 6:18 PM CST
Astronomical Twilight 5:43 AM CST 6:47 PM CST
Moon 7:59 AM CST (1/5) 6:52 PM CST (1/5)
Length of Visible Light 11h 04m
Length of Day
10h 11m
New Moon, 2% of the Moon is Illuminated
Jan 5
New Moon
Jan 12
First Quarter
Jan 19
Full
Jan 26
Last Quarter
Feb 2
New

Hourly Weather History & Observations

Time (CST) Temp. Dew Point Humidity Pressure Visibility Wind Dir Wind Speed Gust Speed Precip Events Conditions
12:53 AM 55.0 °F 53.1 °F 93% 29.98 in 7.0 mi East 4.6 mph - 0.04 in Rain Light Rain
1:30 AM 57.2 °F 53.6 °F 88% 29.96 in 8.0 mi SE 10.4 mph 19.6 mph 0.01 in Rain Light Rain
1:40 AM 55.4 °F 53.6 °F 94% 29.95 in 9.0 mi SE 3.5 mph 16.1 mph 0.01 in Rain Light Rain
1:53 AM 55.9 °F 54.0 °F 93% 29.97 in 9.0 mi NNE 4.6 mph - 0.02 in Rain Light Rain
2:01 AM 55.4 °F 53.6 °F 94% 29.95 in 9.0 mi Calm Calm - 0.00 in   Overcast
2:53 AM 55.9 °F 55.0 °F 97% 29.94 in 6.0 mi Calm Calm - 0.02 in   Overcast
3:21 AM 55.4 °F 55.4 °F 100% 29.93 in 4.0 mi Calm Calm - N/A   Overcast
3:53 AM 54.0 °F 53.1 °F 97% 29.93 in 4.0 mi SSE 5.8 mph - N/A   Mostly Cloudy
4:07 AM 53.6 °F 53.6 °F 100% 29.91 in 2.0 mi Calm Calm - N/A   Mostly Cloudy
4:15 AM 55.4 °F 53.6 °F 94% 29.90 in 2.5 mi Calm Calm - N/A   Mostly Cloudy
4:22 AM 53.6 °F 53.6 °F 100% 29.91 in 3.0 mi Calm Calm - N/A   Mostly Cloudy
4:32 AM 53.6 °F 53.6 °F 100% 29.91 in 2.0 mi SE 3.5 mph - N/A   Overcast
4:44 AM 55.4 °F 53.6 °F 94% 29.90 in 3.0 mi SSE 4.6 mph - N/A   Overcast
4:53 AM 55.0 °F 54.0 °F 96% 29.91 in 3.0 mi SE 4.6 mph - N/A   Overcast
5:22 AM 55.4 °F 53.6 °F 94% 29.90 in 3.0 mi Calm Calm - N/A   Overcast
5:53 AM 55.9 °F 55.0 °F 97% 29.92 in 4.0 mi Calm Calm - N/A   Overcast
6:12 AM 55.4 °F 55.4 °F 100% 29.90 in 1.8 mi Calm Calm - N/A   Overcast
6:25 AM 55.4 °F 55.4 °F 100% 29.91 in 1.2 mi Calm Calm - N/A   Overcast
6:45 AM 55.4 °F 55.4 °F 100% 29.92 in 1.8 mi Calm Calm - N/A   Overcast
6:53 AM 55.9 °F 55.0 °F 97% 29.93 in 2.0 mi Calm Calm - N/A   Overcast
7:12 AM 55.4 °F 55.4 °F 100% 29.92 in 1.2 mi Calm Calm - N/A   Overcast
7:37 AM 55.4 °F 55.4 °F 100% 29.92 in 1.2 mi Calm Calm - N/A   Overcast
7:53 AM 55.0 °F 55.0 °F 100% 29.93 in 1.0 mi Calm Calm - N/A   Overcast
8:16 AM 57.2 °F 55.4 °F 94% 29.92 in 2.5 mi Calm Calm - N/A   Overcast
8:24 AM 57.2 °F 55.4 °F 94% 29.93 in 3.0 mi Calm Calm - N/A   Overcast
8:53 AM 57.9 °F 57.0 °F 97% 29.95 in 3.0 mi WSW 4.6 mph - N/A   Overcast
9:23 AM 60.8 °F 57.2 °F 88% 29.94 in 10.0 mi WNW 4.6 mph - N/A   Overcast
9:53 AM 63.0 °F 59.0 °F 87% 29.95 in 10.0 mi WNW 9.2 mph - N/A   Mostly Cloudy
10:53 AM 64.0 °F 57.0 °F 78% 29.95 in 10.0 mi WNW 8.1 mph - N/A   Overcast
11:53 AM 64.9 °F 57.0 °F 75% 29.92 in 10.0 mi NW 10.4 mph - N/A   Overcast
12:16 PM 66.2 °F 55.4 °F 68% 29.90 in 10.0 mi WNW 10.4 mph - N/A   Scattered Clouds
12:53 PM 66.9 °F 55.0 °F 66% 29.89 in 10.0 mi WNW 13.8 mph - N/A   Mostly Cloudy
1:53 PM 69.1 °F 55.0 °F 61% 29.87 in 10.0 mi NW 10.4 mph - N/A   Mostly Cloudy
2:53 PM 68.0 °F 54.0 °F 61% 29.87 in 10.0 mi NNW 10.4 mph - N/A   Clear
3:53 PM 66.9 °F 51.1 °F 57% 29.87 in 10.0 mi NW 10.4 mph - N/A   Clear
4:53 PM 64.0 °F 44.1 °F 48% 29.88 in 10.0 mi NW 12.7 mph - N/A   Clear
5:53 PM 57.9 °F 48.0 °F 70% 29.90 in 10.0 mi NNW 8.1 mph - N/A   Clear
6:53 PM 54.0 °F 45.0 °F 72% 29.92 in 10.0 mi NNW 8.1 mph - N/A   Clear
7:53 PM 54.0 °F 44.1 °F 69% 29.94 in 10.0 mi NW 5.8 mph - N/A   Clear
8:53 PM 52.0 °F 42.1 °F 69% 29.96 in 10.0 mi NW 5.8 mph - N/A   Clear
9:53 PM 50.0 °F 39.9 °F 68% 29.98 in 10.0 mi NW 4.6 mph - N/A   Clear
10:53 PM 46.9 °F 39.0 °F 74% 29.99 in 10.0 mi NW 5.8 mph - N/A   Clear
11:53 PM 46.0 °F 37.9 °F 73% 29.99 in 10.0 mi Calm Calm - N/A   Clear